Regional Weather Roundup
Issued by NWS Raleigh/Durham, NC

Current Version | Previous Version | Graphics & Text | Print | Product List | Glossary On
Versions: 1 2 3 4 5 6 7 8 9 10 11 12 13 14 15 16 17 18 19 20 21 22 23 24 25 26
000
ASUS42 KRAH 280010
RWRRAH
NORTH CAROLINA WEATHER ROUNDUP
NATIONAL WEATHER SERVICE RALEIGH NC
800 PM EDT THU JUL 27 2017

NOTE: "FAIR" INDICATES FEW OR NO CLOUDS BELOW 12,000 FEET WITH NO
SIGNIFICANT WEATHER AND/OR OBSTRUCTIONS TO VISIBILITY.

NCZ001-053-055-056-065-067-280100-
WESTERN NORTH CAROLINA

CITY           SKY/WX    TMP DP  RH WIND       PRES   REMARKS
ASHEVILLE      PTCLDY    75  72  90 CALM      30.04S
JEFFERSON      CLOUDY    68  67  98 CALM      30.08F FOG
HICKORY        CLOUDY    74  73  97 W3        29.97F
RUTHERFORDTON  PTCLDY    80  78  94 CALM      29.99R
MOUNT AIRY     CLOUDY    73  68  87 CALM      30.01S
BOONE          CLOUDY    68  65  90 W6        30.09S
$$

NCZ021-022-025-041-071-084-088-280100-
CENTRAL NORTH CAROLINA

CITY           SKY/WX    TMP DP  RH WIND       PRES   REMARKS
CHARLOTTE      CLOUDY    84  72  67 S6        29.95S
GREENSBORO     CLOUDY    78  75  90 SW7       29.96R
WINSTON-SALEM  CLOUDY    76  73  91 N3        29.97F
RALEIGH-DURHAM CLOUDY    86  70  58 W6        29.93S
FORT BRAGG     CLOUDY    86  70  58 SW5       29.92S
FAYETTEVILLE   CLOUDY    86  73  65 S6        29.92F
BURLINGTON     CLOUDY    84  73  69 SW3       29.93R
LAURINBURG     CLOUDY    85  76  74 SW5       29.94S
$$

NCZ011-015-027-028-043-044-047-080-103-280100-
NORTHEASTERN NORTH CAROLINA

CITY           SKY/WX    TMP DP  RH WIND       PRES   REMARKS
ROCKY MT-WILSO CLOUDY    80  76  87 CALM      29.92F
GREENVILLE     CLOUDY    84  68  58 S13       29.95S
WASHINGTON     PTCLDY    82  70  65 S7        29.94S
ELIZABETH CITY PTCLDY    82  74  76 S9        29.93S
MANTEO         MOCLDY    81  70  68 SW17      29.95S
CAPE HATTERAS  MOCLDY    81  71  71 S10       29.96F
$$

NCZ078-087-090-091-093-098-101-280100-
SOUTHEASTERN NORTH CAROLINA

CITY           SKY/WX    TMP DP  RH WIND       PRES   REMARKS
LUMBERTON      CLOUDY    83  73  72 SE5       29.93S
GOLDSBORO      CLOUDY    85  70  61 S9        29.92R
KINSTON        CLOUDY    84  66  54 S9G16     29.95R
KENANSVILLE    PTCLDY    82  70  65 S3        29.95R
NEW BERN       PTCLDY    81  70  69 S9        29.96S
CHERRY POINT   PTCLDY    80  70  71 S7        29.97S
BEAUFORT       PTCLDY    81  71  71 S9        29.96S
JACKSONVILLE   PTCLDY    80  75  84 S7        29.94F
WILMINGTON     PTCLDY    81  74  79 S8        29.95F
$$





USA.gov is the U.S. government's official web portal to all federal, state and local government web resources and services.